Location: Unspecified
(0.0000°N, 0.0000°E)
Time: 11:30:26
(UTC+00:00)

S-56A Canister/Altair - Pass Details

Date: 25 November 2019
Orbit: 633 x 2499 km, 38.9° (Epoch: 07 December)

Event Time Altitude Azimuth Distance (km) Brightness Sun altitude
Rises 22:34:20 0° 324° (NW) 3,161 - -62.6°
Reaches altitude 10° 22:37:02 10° 333° (NNW) 2,110 - -63.0°
Maximum altitude 22:41:17 36° 40° (NE) 1,006 - -63.7°
Drops below altitude 10° 22:45:24 10° 108° (ESE) 2,035 - -64.3°
Sets 22:47:56 0° 116° (ESE) 3,030 - -64.7°
